Regional Weather Roundup
Issued by NWS

Home | Current Version | Previous Version | Text Only | Print | Product List | Glossary On
Versions: 1 2 3 4 5 6 7 8 9 10 11 12 13 14 15 16 17 18 19 20 21 22 23 24 25 26 27 28 29 30 31 32 33 34 35 36 37 38 39 40 41 42 43 44 45 46 47 48 49 50
000
ASUS43 KDTX 010910
RWRMI
MICHIGAN HOURLY REGIONAL WEATHER ROUNDUP
NATIONAL WEATHER SERVICE DETROIT/PONTIAC MI
500 AM EDT MON SEP 01 2014

NOTE: "FAIR" INDICATES FEW OR NO CLOUDS BELOW 12,000 FEET WITH NO
SIGNIFICANT WEATHER AND/OR OBSTRUCTION TO VISIBILITY.

MIZ047>049-052>055-059>063-066>070-074>076-081>083-011000-
SOUTHEAST LOWER MICHIGAN

CITY           SKY/WX    TMP DP  RH WIND       PRES   REMARKS
ADRIAN         CLEAR     69  67  93 SW5       29.94S
ALMA           PTCLDY    64  63  97 S3        29.89S FOG
BAD AXE        CLEAR     65  65 100 CALM      29.90S FOG
CARO           FOG       63  62  99 CALM      29.90S VSB 1/2
DETROIT CITY   PTCLDY    74  69  85 SW6       29.93S
DETROIT        PTCLDY    70  68  93 S6        29.93S
FLINT          CLEAR     70  64  81 S5        29.91S
GROSSE ILE     PTCLDY    72  70  94 SW6       29.92S
HILLSDALE      PTCLDY    70  70 100 S3        29.94S FOG
HOWELL         CLEAR     67  66  98 S3        29.92S FOG

CITY           SKY/WX    TMP DP  RH WIND       PRES   REMARKS
JACKSON        CLEAR     69  67  93 S5        29.92S
LAMBERTVILLE   MOCLDY    72  68  88 S5        29.94S
LANSING        PTCLDY    69  67  93 S7        29.91S FOG
LAPEER         FOG       62  61  96 CALM      29.92S VSB 1/4
MASON          MOCLDY    67  66  96 S3        29.92R FOG
MONROE         PTCLDY    70  68  94 S5        29.91S
MT. CLEMENS    CLEAR     72  69  90 SW6       29.91F
PONTIAC        CLEAR     69  66  90 CALM      29.92S
PORT HOPE        N/A     68  65  90 SW5       29.88S
PORT HURON     FOG       66  66 100 CALM      29.92S VSB<1/4
TRI CITIES     CLEAR     67  64  90 S6        29.90R
TROY           PTCLDY    73  68  87 SW6       29.94S
SAGINAW HB     PTCLDY    64  64 100 S5        29.89S
$$
MIZ043>046-050>051-056>058-064>065-071>073-077>080-011000-
SOUTHWEST LOWER MICHIGAN

CITY           SKY/WX    TMP DP  RH WIND       PRES   REMARKS
BATTLE CREEK   CLEAR     70  67  90 S8        29.91S FOG
BENTON HARBOR  CLEAR     70  68  93 S7        29.87F
BIG RAPIDS     MOCLDY    61  61 100 CALM      29.87F
COLDWATER      CLEAR     72  70  95 SW5       29.92S FOG
FREMONT        FAIR      67  66  97 S5        29.85F
HOLLAND        CLEAR     71  69  93 S7        29.86F
GRAND RAPIDS   CLEAR     67  67 100 SE5       29.88S FOG
IONIA          FAIR      66  65  98 S5        29.88S FOG
KALAMAZOO      CLEAR     70  68  93 S7        29.90S FOG
LUDINGTON      CLEAR     69  67  92 S8        29.82F
MARSHALL       CLEAR     69  68  98 S3        29.91S FOG
MOUNT PLEASANT FOG       58  58  98 CALM      29.88S VSB 1
MUSKEGON       PTCLDY    73  68  84 S10G18    29.85F
SOUTH HAVEN    CLEAR     73  70  92 S5        29.87S
$$
MIZ016>042-011000-
NORTHERN LOWER MICHIGAN

CITY           SKY/WX    TMP DP  RH WIND       PRES   REMARKS
ALPENA         FOG       59  59 100 S3        29.88F VSB 1/4
BEAVER ISLAND  CLEAR     66  64  93 S8        29.79F
BELLAIRE       MOCLDY    61  60  96 CALM      29.82F FOG
CADILLAC       MOCLDY    67  64  92 S8        29.85F
CHARLEVOIX     PTCLDY    64  64  98 SE6       29.84F
FRANKFORT      PTCLDY    71  64  79 S9        29.80F
GAYLORD        CLEAR     61  60  97 S6        29.87F
GRAYLING       CLOUDY    59  59 100 CALM      29.89S FOG
HARBOR SPRINGS PTCLDY    63  61  94 CALM      29.83F
HOUGHTON LAKE  FOG       60  60 100 E3        29.89S VSB 1/4
MANISTEE       PTCLDY    66  63  88 CALM      29.82F
OSCODA         FOG       56  56  97 CALM      29.88S VSB 1/4
PELLSTON       PTCLDY    63  61  93 S6        29.84S
ROGERS CITY    PTCLDY    61  61 100 S6        29.88S
TRAVERSE CITY  PTCLDY    68  62  81 S3        29.80F
$$
MIZ007>008-015-011000-
EASTERN UPPER MICHIGAN

CITY           SKY/WX    TMP DP  RH WIND       PRES   REMARKS
KINROSS        CLOUDY    61  61 100 SE12      29.85R
MACKINAC ISLAN PTCLDY    62  62  99 SE10G20   29.83S
NEWBERRY       PTCLDY    61  61  98 SE8       29.79F
S. S. MARIE    PTCLDY    60  58  92 SE9       29.84F
MUNISING         N/A     68  64  87 S7        29.71F
$$
MIZ004>006-011>014-085-011000-
CENTRAL UPPER MICHIGAN

CITY           SKY/WX    TMP DP  RH WIND       PRES   REMARKS
MANISTIQUE     MOCLDY    64  64  97 SE6       29.76F
ESCANABA       MOCLDY    66  63  88 SE8       29.72F
MENOMINEE      MOCLDY    70  66  88 S12       29.71F
SAWYER-GWINN   LGT RAIN  64  63  97 S10       29.71F
$$
MIZ001>003-009>011-084-011000-
WESTERN UPPER MICHIGAN

CITY           SKY/WX    TMP DP  RH WIND       PRES   REMARKS
IRON MOUNTAIN  CLOUDY    66  65  96 SE10      29.69F FOG
HOUGHTON       CLOUDY    68  62  81 SW8       29.60F
COPPER HARBOR    N/A     65  61  87 SW7       29.61F
$$

ABBREVIATIONS USED IN REMARKS
   TC - TEMPERATURE IN CELSIUS
  WCI - WIND CHILL INDEX
   HX - HEAT INDEX
  VSB - VISIBILITY



USA.gov is the U.S. government's official web portal to all federal, state and local government web resources and services.